• Processing (Info)

  • MPEC 2013-E58 : 2013 ES41

    The following Minor Planet Electronic Circular may be linked-to from your own Web pages, but must not otherwise be redistributed electronically.

    A form allowing access to any MPEC is at the bottom of this page.


    Read MPEC 2013-E57 Read MPEC 2013-E59


    M.P.E.C. 2013-E58                                Issued 2013 Mar. 13, 11:37 UT
    
         The Minor Planet Electronic Circulars contain information on unusual
             minor planets and routine data on comets.  They are published
       on behalf of Commission 20 of the International Astronomical Union by the
              Minor Planet Center, Smithsonian Astrophysical Observatory,
                              Cambridge, MA 02138, U.S.A.
    
                 Prepared using the Tamkin Foundation Computer Network
    
                                  MPC@CFA.HARVARD.EDU
                URL https://www.minorplanetcenter.net/    ISSN 1523-6714
    
                                       2013 ES41
    
    Observations:
         K13E41S* C2013 03 12.39848 11 22 14.98 +27 35 37.6          19.8 VuEE058703
         K13E41S  C2013 03 12.40366 11 21 53.35 +27 35 59.1          18.7 VuEE058703
         K13E41S  C2013 03 12.40875 11 21 32.36 +27 36 19.4          18.9 VuEE058703
         K13E41S  C2013 03 12.44214 11 19 14.26 +27 38 26.9          19.2 VuEE058703
         K13E41S  C2013 03 12.44251 11 19 12.75 +27 38 27.6          18.7 VuEE058703
         K13E41S  C2013 03 12.44289 11 19 11.31 +27 38 29.9          18.6 VuEE058703
         K13E41S  C2013 03 12.44326 11 19 09.69 +27 38 30.5          19.1 VuEE058703
         K13E41S  C2013 03 12.46894 11 17 23.35 +27 39 58.9          18.5 VuEE058703
         K13E41S  C2013 03 12.46971 11 17 20.29 +27 40 01.4          18.8 VuEE058703
         K13E41S  C2013 03 12.47008 11 17 18.85 +27 40 02.9          18.9 VuEE058703
         K13E41S  C2013 03 13.26969 10 18 31.86 +27 57 06.4          19.8 VuEE058703
         K13E41S  C2013 03 13.27024 10 18 29.01 +27 57 04.8          18.7 VuEE058703
         K13E41S  C2013 03 13.27079 10 18 25.81 +27 57 02.1          18.7 VuEE058703
         K13E41S  C2013 03 13.27156 10 18 22.60 +27 57 00.9          19.1 VuEE058703
         K13E41S  C2013 03 13.27206 10 18 20.01 +27 56 59.0          18.9 VuEE058703
         K13E41S  C2013 03 13.27349 10 18 12.70 +27 56 55.8          18.6 VuEE058703
         K13E41S  C2013 03 13.31987 10 14 20.39 +27 54 25.7          19.2 VuEE058703
         K13E41S  C2013 03 13.32075 10 14 16.04 +27 54 23.1          18.5 VuEE058703
         K13E41S KC2013 03 13.34505 10 12 09.20 +27 51 22.0          19.3 RqEE058H36
         K13E41S KC2013 03 13.35673 10 11 11.28 +27 50 29.8          19.7 RqEE058H36
         K13E41S KC2013 03 13.37518 10 09 40.17 +27 49 05.1          19.1 RqEE058H36
    
    Observer details:
    703 Catalina Sky Survey.  Observers J. A. Johnson, A. Boattini.  Measurers
        A. Boattini, E. J. Christensen, A. R. Gibbs, A. D. Grauer, R. E. Hill,
        J. A. Johnson, R. A. Kowalski, S. M. Larson, R. H. McNaught, F. C. Shelly.
        0.68-m Schmidt + CCD.
    H36 Sandlot Observatory, Scranton.  Observer G. Hug.  0.56-m reflector + CCD.
    
    Orbital elements:
    2013 ES41                                                Earth MOID = 0.0057 AU
    Epoch 2013 Apr. 18.0 TT = JDT 2456400.5                 MPC
    M 270.03026              (2000.0)            P               Q
    n   1.53937634     Peri.  341.67523     +0.90980380     +0.41458020
    a   0.7428586      Node   353.72698     -0.35497353     +0.75292885
    e   0.3959709      Incl.   10.28101     -0.21506008     +0.51109824
    P   0.64           H   26.6           G   0.15           U   9
    Residuals in seconds of arc
    130312 703  3.1+  1.1-    130312 703  0.3-  0.3-    130313 703  2.5+  1.3-
    130312 703  0.4-  0.8-    130312 703  1.4+  0.3-    130313 703  0.4+  0.6-
    130312 703  0.1-  1.0-    130312 703  2.6+  0.0     130313 703  0.2+  1.1-
    130312 703  1.0-  0.1-    130313 703  2.6+  0.3-    130313 703  1.0+  0.5-
    130312 703  0.7-  0.8-    130313 703  1.2+  0.5-    130313 H36  0.9-  0.4-
    130312 703  1.1+  0.2+    130313 703  4.7-  1.7-    130313 H36  0.5-  0.5-
    130312 703  0.1-  0.6-    130313 703  3.7+  0.8-    130313 H36  3.1+  1.7+
    
    Ephemeris:
    2013 ES41                a,e,i = 0.74, 0.40, 10                  q = 0.4487
    Date    TT    R. A. (2000) Decl.     Delta      r     Elong.  Phase     V
    2013 02 11    15 00 38.3 +10 46 00   0.1659  1.0333   101.6    69.3    25.2
    ...
    2013 02 26    14 50 55.1 +12 50 32   0.08811 1.0337   117.5    58.2    23.5
    ...
    2013 03 06    14 16 04.3 +16 58 58   0.04636 1.0238   132.3    45.8    21.7
    ...
    2013 03 12    11 47 17.5 +26 58 20   0.01981 1.0118   156.0    23.5    19.2
    2013 03 13    10 39 39.8 +28 03 14   0.01748 1.0094   152.0    27.5    19.1
    2013 03 14    09 18 57.1 +26 36 18   0.01664 1.0069   139.4    40.0    19.3
    ...
    2013 03 20    05 13 02.3 +04 23 54   0.03623 0.9895    78.9    99.0    23.0
    ...
    2013 03 28    04 18 46.4 -02 37 55   0.07637 0.9601    58.2   117.9    25.6
    ...
    2013 04 12    03 45 06.5 -05 14 17   0.1556  0.8857    38.4   135.4    28.6
    
    A. U. Tomatic                (C) Copyright 2013 MPC           M.P.E.C. 2013-E58
    

    Read MPEC 2013-E57 Read MPEC 2013-E59


    MPEC number:

    Enter an MPEC number in one of the following forms:

    • 1997-B01 (the full form)
    • J97B01 (the packed version of the full form)
    • B01 (the abbreviated form)